RH
48 42 42 43 44 46 42 34 35 33 29 25 24 24 25 26 27 27 26 26 28 29 30 31 32 30 30 31 31 30 30 29 29 28 31 32 36 40 40 42 42 44 46
54 46 44 48 47 55 49 47 49 40 35 30 28 27 27 27 27 27 26 27 28 29 29 31 32 32 29 28 28 30 30 30 30 30 30 31 33 39 45 50 51 55 51
59 54 50 56 62 59 53 52 49 46 38 33 31 30 28 28 29 29 30 31 31 32 29 30 32 33 35 34 29 29 29 29 31 32 32 33 33 38 43 52 61 62 61
64 64 64 66 61 58 54 58 55 50 40 34 32 31 31 30 32 33 35 35 36 35 34 32 32 33 34 38 38 32 31 30 29 32 33 34 35 40 49 57 64 66 70
68 73 70 70 65 57 57 53 49 49 37 31 30 31 32 34 35 36 38 38 38 40 39 40 38 37 37 38 39 37 32 33 30 31 32 33 36 38 49 58 65 62 65
66 76 69 66 62 51 52 50 47 40 33 30 30 31 33 35 36 37 39 42 41 42 44 43 42 40 40 41 41 39 37 32 29 30 32 32 35 38 48 53 57 57 62
65 78 70 64 56 51 52 52 45 38 32 31 31 31 31 33 34 37 40 43 43 44 47 49 47 45 41 44 43 38 41 38 32 28 32 32 33 36 45 59 58 59 65
63 65 61 59 57 55 54 46 39 33 30 29 27 27 28 30 32 35 37 40 40 41 45 49 52 53 51 48 51 47 43 45 42 34 30 31 32 34 36 50 52 54 62
59 59 58 56 54 54 46 39 32 29 28 27 26 26 27 26 26 25 24 26 30 34 37 42 47 53 57 57 58 61 58 52 47 48 45 40 36 37 35 39 50 52 56
54 56 58 56 52 44 37 32 30 28 28 28 28 28 28 28 26 22 15 13 13 13 15 19 31 43 52 56 61 63 64 63 59 53 49 47 50 43 42 40 46 48 56
54 53 50 48 45 41 36 33 31 31 31 31 30 29 28 28 26 22 15 12 11 11 13 14 15 16 20 31 47 59 67 71 69 63 57 53 52 51 48 43 43 51 50
50 49 48 47 45 42 38 37 36 35 34 32 30 28 27 26 24 22 16 13 12 12 11 11 10 10 10 11 13 18 27 44 60 65 62 61 58 56 54 54 48 47 51
47 47 46 44 42 38 36 35 35 35 33 31 29 28 25 22 22 21 15 13 13 13 12 11 11 10 10 10 10 10 10 10 14 22 37 53 57 58 58 57 56 51 47
43 41 40 38 36 34 33 33 33 31 30 28 26 25 25 23 21 16 15 14 13 13 13 13 12 11 10 10 10 10 11 11 11 10 11 13 33 50 52 50 55 57 53
39 37 34 31 30 29 28 28 28 28 27 26 24 22 20 19 18 17 16 15 15 15 14 14 13 12 11 10 10 9 9 10 10 10 10 10 11 15 40 51 48 51 56
31 28 28 28 27 25 24 24 23 23 22 22 21 20 18 18 17 17 16 16 17 17 16 15 15 13 13 12 11 10 10 9 10 10 10 10 10 12 12 32 49 49 52
26 26 25 24 23 23 22 22 22 21 21 21 21 21 21 21 21 21 20 19 19 17 17 16 15 14 14 13 12 11 10 10 9 9 10 10 10 10 12 12 26 47 49
29 28 28 27 27 27 27 28 28 28 28 27 27 27 26 25 25 25 24 22 21 21 20 19 18 17 16 15 14 13 12 11 10 10 9 10 10 10 10 11 12 25 46
35 34 34 34 35 34 34 34 34 33 34 34 34 32 30 28 27 26 26 25 24 23 23 23 22 20 19 18 17 16 15 14 13 12 11 10 10 10 10 10 11 12 25
39 37 38 39 37 38 38 38 38 38 39 37 35 33 32 31 28 26 25 25 24 24 24 24 25 26 26 25 23 22 21 19 18 19 18 17 17 15 13 12 12 12 12
41 43 45 45 45 45 44 43 42 41 40 37 34 32 29 27 26 25 24 22 21 22 24 26 28 29 30 30 27 26 26 27 28 28 29 27 26 27 25 23 18 16 15
47 48 49 53 52 48 45 44 44 44 41 36 34 31 26 23 23 23 22 22 22 22 23 24 27 29 32 35 36 34 32 32 33 33 34 36 34 31 32 30 30 27 25
54 58 62 61 52 48 49 50 50 44 39 37 34 29 25 24 24 23 23 23 20 21 23 25 28 31 33 38 41 42 40 40 37 36 36 39 38 38 38 38 37 35 33
56 61 61 57 54 56 57 53 48 43 40 36 32 30 28 26 24 23 22 21 20 23 24 26 28 32 36 40 42 48 49 46 45 40 38 39 40 39 40 40 39 40 38
65 67 66 68 68 67 54 49 48 44 38 37 36 33 31 30 30 29 27 25 24 26 26 26 31 34 39 43 46 47 51 50 50 48 43 42 42 42 42 43 44 42 44
73 77 77 75 65 61 53 50 47 41 40 39 37 36 32 32 33 33 32 31 27 27 28 26 28 33 40 44 49 50 56 55 53 52 49 48 48 45 44 46 48 46 46